sat.trackr.live / text

‹ back to catalog

STARLINK-37203

NORAD 68388 · 2026-063J

PAYLOAD ACTIVE UNKNOWN

§ Identity

Operator
Country
US
Launch date
2026-03-26
Launch site
AFWTR
Launch vehicle
Mass (kg)
RCS (m²)

Purposes: comms

External: N2YO · Heavens-Above · Gunter

§ Orbital elements

Epoch: 2026-05-25T03:25:28.435008Z

Period
93.91 min
Inclination
97.2862°
Eccentricity
0.0000171
Mean motion
15.33464018 rev/d
Perigee alt
465.4 km
Apogee alt
465.6 km
Semi-major
6,843.6 km
B*
9.5335e-4
RAAN
287.7318°
Arg perigee
111.2232°
Mean anomaly
248.9029°
Rev number
961

§ Raw data

STARLINK-372031 68388U 26063J   26145.14269022  .00030847  00000+0  95335-3 0  99932 68388  97.2862 287.7318 0000171 111.2232 248.9029 15.33464018  9611

JSON: /api/v1/satellites/68388 · /tle

For live sub-satellite position, see the globe view (requires WebGL).

§ Visibility from observer

Set your observer location to see the next 7 days of passes ≥ 10°. The values pass through the URL so the page stays shareable.

No JS? Fill the form by hand. The geolocation button needs JavaScript.